Regional Weather Roundup
Issued by NWS

Home | Current Version | Previous Version | Text Only | Print | Product List | Glossary On
Versions: 1 2 3 4 5 6 7 8 9 10 11 12 13 14 15 16 17 18 19 20 21 22 23 24 25 26 27 28 29 30 31 32 33 34 35 36 37 38 39 40 41 42 43 44 45 46 47 48 49 50
000
ASUS43 KDTX 281310
RWRMI
MICHIGAN HOURLY REGIONAL WEATHER ROUNDUP
NATIONAL WEATHER SERVICE DETROIT/PONTIAC MI
ISSUED BY NATIONAL WEATHER SERVICE GRAND RAPIDS MI
800 AM EST TUE FEB 28 2017

NOTE: "FAIR" INDICATES FEW OR NO CLOUDS BELOW 12,000 FEET WITH NO
SIGNIFICANT WEATHER AND/OR OBSTRUCTION TO VISIBILITY.

MIZ047>049-052>055-059>063-066>070-074>076-081>083-281400-
SOUTHEAST LOWER MICHIGAN

CITY           SKY/WX    TMP DP  RH WIND       PRES   REMARKS
ADRIAN         CLOUDY    40  40 100 S10       30.04F FOG     WCI  33
ALMA           MIX PCPN  40  39  97 SE5       29.98S
ANN ARBOR      LGT RAIN  40  39  97 E8        30.05F FOG     WCI  34
BAD AXE        CLOUDY    35  35  98 SE5       30.07S FOG     WCI  31
DETROIT CITY   LGT RAIN  39  39 100 SE9       30.10S FOG     WCI  33
DETROIT        RAIN      41  39  93 SE7       30.09S FOG
FLINT          LGT RAIN  41  39  93 SE12      30.01F FOG
GROSSE ILE     LGT RAIN  40  38  93 SE9       30.08R WCI  34
HILLSDALE      CLOUDY    39  39 100 SE10      29.99F FOG     WCI  32
HOWELL         DRIZZLE   40  39  94 SE16      29.99F WCI  32

CITY           SKY/WX    TMP DP  RH WIND       PRES   REMARKS
JACKSON        CLOUDY    42  40  92 SE15      29.98F FOG
LANSING        CLOUDY    43  39  86 S12       29.96F FOG
MASON          CLOUDY    41  40  97 SE13G21   29.96F FOG
MONROE         RAIN      40  40  99 SE6       30.08S
MT. CLEMENS    LGT RAIN  38  38 100 SE16      30.07F FOG     WCI  30
PONTIAC        LGT RAIN  39  37  92 SE10      30.03F FOG     WCI  32
PORT HOPE        N/A     35  34  96 SE7       30.07R WCI  29
PORT HURON     LGT RAIN  37  36  93 SE7       30.11R WCI  32
TRI CITIES     LGT RAIN  40  40 100 E8        30.00F FOG     WCI  34
YPSILANTI      LGT RAIN  41  40  96 SE9       30.07F FOG
$$
MIZ043>046-050>051-056>058-064>065-071>073-077>080-281400-
SOUTHWEST LOWER MICHIGAN

CITY           SKY/WX    TMP DP  RH WIND       PRES   REMARKS
BATTLE CREEK   CLOUDY    44  42  93 S16       29.93F
BENTON HARBOR  CLOUDY    48  43  82 S9G18     29.90F
BIG RAPIDS     LGT SNOW  37  36  95 SE8       29.92F WCI  31
COLDWATER      CLOUDY    43  43  98 S10       29.97F FOG
HOLLAND        LGT RAIN  46  42  86 SE12      29.89F
GRAND RAPIDS   LGT RAIN  42  39  89 SE9       29.91F FOG
KALAMAZOO      LGT RAIN  45  41  86 S10       29.93F FOG
MARSHALL       CLOUDY    43  43  98 SE10G17   29.94F
MOUNT PLEASANT MIX PCPN  37  37  99 E7        29.98F WCI  32
MUSKEGON       LGT RAIN  43  41  93 E7        29.89F FOG
STURGIS        CLOUDY    44  42  94 SE13G20   29.95F
$$
MIZ016>042-281400-
NORTHERN LOWER MICHIGAN

CITY           SKY/WX    TMP DP  RH WIND       PRES   REMARKS
ALPENA         CLOUDY    35  33  92 SE3       30.02F
BEAVER ISLAND  DRIZZLE   37  32  83 SE8       29.92F WCI  31
BELLAIRE       MIX PCPN  39  36  87 SE8       29.96S WCI  34
CADILLAC       CLOUDY    36  35  96 SE10      29.91F FOG     WCI  29
CHARLEVOIX     LGT RAIN  38  33  80 SE9       29.96F WCI  32
GAYLORD        LGT RAIN  36  30  79 S9        29.97R WCI  29
HOUGHTON LAKE  CLOUDY    36  34  92 S9        29.98F FOG     WCI  29
MANISTEE       LGT RAIN  40  37  89 E7        29.87F
OSCODA         CLOUDY    36  34  94 S9        30.03F FOG     WCI  29
PELLSTON       CLOUDY    28  24  85 CALM      29.96S
TRAVERSE CITY  LGT RAIN  39  35  86 E5        29.91F
LUDINGTON      CLOUDY    40  39  97 SE8       29.87S FOG     WCI  35
$$
MIZ007>008-015-281400-
EASTERN UPPER MICHIGAN

CITY           SKY/WX    TMP DP  RH WIND       PRES   REMARKS
KINROSS        CLOUDY    29  27  92 SE10      29.97R WCI  20
MACKINAC ISLAN CLOUDY    35  29  80 SE10      29.96R WCI  27
NEWBERRY       CLOUDY    34  30  86 S9        29.92S WCI  26
S. S. MARIE    CLOUDY    28  26  92 E5        29.98R WCI  23
$$
MIZ004>006-011>014-085-281400-
CENTRAL UPPER MICHIGAN

CITY           SKY/WX    TMP DP  RH WIND       PRES   REMARKS
MANISTIQUE     RAIN      35  34  97 CALM      29.90F
ESCANABA       LGT RAIN  35  34  96 SE3       29.88F FOG
MENOMINEE      LGT RAIN  37  36  96 SE3       29.86F FOG
SAWYER-GWINN   FOG       32  32 100 S6        29.85F VSB 1   WCI  26
$$
MIZ001>003-009>011-084-281400-
WESTERN UPPER MICHIGAN

CITY           SKY/WX    TMP DP  RH WIND       PRES   REMARKS
IRON MOUNTAIN  MIX PCPN  28  27  93 CALM      29.82F FOG
HOUGHTON       LGT SNOW  34  29  82 N7        29.82S WCI  28
COPPER HARBOR    N/A     33  31  92 CALM      29.86R
IRONWOOD       LGT RAIN  33  31  92 CALM      29.82R
$$

ABBREVIATIONS USED IN REMARKS
   TC - TEMPERATURE IN CELSIUS
  WCI - WIND CHILL INDEX
   HX - HEAT INDEX
  VSB - VISIBILITY




USA.gov is the U.S. government's official web portal to all federal, state and local government web resources and services.